Location: Kenwood
(32.7121°N, 96.9039°W)
Time: 03:53:11
(UTC+00:00)

Daily predictions for brighter satellites

Satellite Brightness Start Highest point End
(mag) Time Altitude Azimuth Time Altitude Azimuth Time Altitude Azimuth
Cosmos 2034 Rocket 4.1 01:45:58 10° N 01:52:12 69° E 01:58:26 10° SSE
NOSS 3-4 (A) 3.3 01:48:37 10° SSW 01:54:21 72° ESE 02:00:18 10° NE
NOSS 3-4 (C) 3.3 01:48:45 10° SSW 01:54:27 71° ESE 02:00:23 10° NE
OBJECT-B 1.4 01:56:16 10° SE 01:59:14 37° ENE 02:02:13 10° N
SAR-Lupe-1 4.4 01:56:06 10° NNE 01:59:32 43° E 02:02:57 10° S
SAR-Lupe-4 4.1 01:56:36 10° NNE 01:59:57 38° E 02:03:18 10° S
Cosmos 405 Rocket 2.8 01:56:52 10° S 02:00:37 59° E 02:04:30 10° NNE
Atlas Centaur 2 2.8 01:58:36 10° SSW 02:01:34 19° SSE 02:04:17 10° ESE
SJ-6B 3.3 01:58:27 10° SE 02:01:55 37° ENE 02:05:22 10° N
OAO 1 Rocket 4.5 01:57:25 10° WSW 02:02:45 72° SSE 02:08:04 10° ENE
ATLAS 2AS CENTAUR R/B 3.3 01:55:33 10° S 02:02:54 46° ESE 02:10:18 10° NE
Centaur D-1AR AC-39 3.5 01:58:46 10° WSW 02:05:50 24° SSW 02:09:01 10° SE
Cosmos 1437 Rocket 4.0 02:08:08 10° NNE 02:11:17 24° ENE 02:14:11 11° SE
Resurs 01 Rocket 3.4 02:09:02 10° ESE 02:11:45 16° ENE 02:14:30 10° NNE
Cosmos 1812 Rocket 3.8 02:09:37 10° N 02:14:05 76° W 02:18:32 10° S
Cosmos 1408 2.5 02:11:06 10° S 02:14:44 73° E 02:18:21 10° N
CZ-4 R/B 4.2 02:14:07 10° SW 02:17:02 19° W 02:19:59 10° NW
Cosmos 1825 Rocket 3.5 02:14:39 10° S 02:19:01 89° WNW 02:23:21 10° N
RESURS DK-1 4.0 02:17:56 12° SE 02:19:52 16° ESE 02:22:25 10° ENE
OAO 3 Copernicus 4.3 02:15:33 10° WSW 02:20:35 82° SSE 02:25:38 10° ENE
Cosmos-2242 2.9 02:18:56 10° N 02:23:12 76° E 02:27:26 10° S
CENTAUR R/B 3.3 02:21:14 10° NNW 02:29:46 75° ENE 02:37:50 14° SE
Sakura Rocket 4.5 02:20:58 10° W 02:30:01 66° S 02:35:42 15° ESE
In-Cosmos 22 Rocket 4.4 02:25:40 10° SSW 02:30:56 71° W 02:36:15 10° N
USA 267 3.9 02:25:21 10° ENE 02:31:01 31° SE 02:36:39 10° S
Cosmos 44 Rocket 3.5 02:27:30 10° SSW 02:32:30 57° ESE 02:37:36 10° NE
Cosmos 1634 Rocket 4.0 02:31:02 10° N 02:37:18 72° E 02:43:29 10° SSE
Ariane Rocket 3.1 02:37:32 15° SSE 02:41:44 61° ENE 02:46:44 10° N
Helios 1A Rocket 3.3 02:37:46 10° S 02:41:44 62° W 02:45:44 10° NNW
ERS-2 2.0 02:38:46 10° NNE 02:42:25 87° ESE 02:46:03 10° SSW
IRS-1A Rocket 4.2 02:38:17 13° SSE 02:43:17 69° ENE 02:48:45 10° N
USA 238 DEB 3.9 02:37:05 10° NNW 02:44:32 89° ENE 02:50:46 17° SSE
USA 238 3.9 02:37:11 10° NNW 02:44:38 89° ENE 02:50:51 17° SSE
SEDSat Delta rocket 2.9 02:43:37 10° WSW 02:47:34 55° SSE 02:49:48 24° E
Cosmos 783 Rocket 4.4 02:42:47 10° S 02:47:54 66° ESE 02:53:04 10° NNE
OAO 2 Rocket 3.5 02:44:44 10° W 02:49:46 68° N 02:53:27 18° E
CZ-2C R/B 4.3 02:48:06 10° NNE 02:52:12 34° E 02:53:39 27° SE
Cosmos 1242 Rocket 2.7 02:49:14 10° N 02:52:43 49° E 02:53:50 34° SE
EPKM 3.7 02:52:16 10° SW 02:54:38 23° S 02:55:15 22° SSE
Cosmos 2221 3.3 02:51:12 10° NNE 02:55:06 33° E 02:56:12 29° ESE
USA 307 3.1 02:51:39 10° NW 02:55:52 61° NE 02:57:40 32° ESE
MOS 1 4.3 02:51:32 13° SSE 02:56:35 86° WSW 03:02:16 10° NNW
IGS 5A 3.4 03:04:14 34° SSE 03:05:55 70° ENE 03:10:02 10° N
Hubble Space Telescope 1.1 03:02:54 10° WSW 03:06:48 42° S 03:07:16 40° SSE
Cosmos 1697 Rocket 3.2 03:01:56 10° N 03:07:21 44° ENE 03:09:29 31° ESE
Cosmos 2082 Rocket 2.1 03:02:49 10° SSW 03:08:24 74° ESE 03:14:01 10° NNE
Cosmos 1606 3.5 03:08:01 10° NNE 03:11:14 32° ENE 03:11:14 32° ENE
SPOT 3 Rocket 3.6 03:09:28 32° SE 03:11:45 62° ENE 03:16:55 10° N
Cosmos 1833 Rocket 3.8 03:06:45 10° SW 03:12:08 46° WNW 03:17:34 10° N
USA 305 2.8 03:08:23 10° NW 03:12:34 81° SW 03:13:42 47° SSE
USA 308 2.8 03:08:29 10° NW 03:12:43 89° NNE 03:13:51 48° SE
Resurs 1-3 4.4 03:10:54 16° S 03:14:08 47° W 03:18:22 10° NNW
Cosmos 773 Rocket 4.0 03:10:22 10° SSW 03:15:37 81° WNW 03:20:50 10° NNE
BREEZE-M R/B 3.7 03:06:28 10° SSW 03:15:53 43° SE 03:17:24 32° E
Cosmos 2151 3.8 03:23:49 33° ENE 03:23:49 33° ENE 03:26:58 10° NNE
SWAS 4.4 03:23:03 10° NNW 03:27:18 79° WSW 03:28:06 57° S
Cosmos 2058 4.5 03:25:35 10° SW 03:29:21 34° W 03:33:11 10° NNW
Landsat 7 3.9 03:28:04 38° S 03:29:51 73° WSW 03:34:37 10° NNW
Cosmos 1092 Rocket 4.3 03:29:20 40° ESE 03:30:34 45° E 03:36:28 10° NNE
Centaur D AC-29 3.4 03:16:49 10° W 03:32:35 29° SW 03:35:11 22° S
Cosmos 2279 Rocket 4.3 03:27:24 10° NNW 03:33:30 62° W 03:37:33 22° SSW
Cosmos 1842 Rocket 3.6 03:31:10 10° N 03:35:39 80° W 03:36:31 57° SSW
GP-B 4.3 03:32:02 10° NNE 03:34:53 28° ENE 03:34:53 28° ENE
USA 306 3.4 03:32:30 10° NW 03:36:35 46° SW 03:36:55 45° SW
Meteor 2-3 Rocket 4.0 03:36:27 45° ESE 03:36:44 45° E 03:42:06 10° NNE
Cosmos 1076 Rocket 3.7 03:39:35 47° SW 03:40:40 68° W 03:44:59 10° N
ERS-1 Rocket 3.7 03:40:52 35° ENE 03:40:52 35° ENE 03:45:24 10° N
Spot 2 Rocket 3.6 03:41:46 54° E 03:42:12 56° ENE 03:47:12 10° N
Cosmos 2369 3.7 03:36:47 10° NNW 03:42:24 63° ENE 03:43:19 55° ESE
Resurs 01 Rocket 2.9 03:46:24 28° SW 03:47:54 36° W 03:52:00 10° NNW
Cosmos 2026 Rocket 4.1 03:49:08 50° ESE 03:49:46 52° E 03:55:53 10° NNE
Atlas Centaur 2 3.3 03:46:16 10° WSW 03:47:12 16° WSW 03:47:12 16° WSW
BREEZE M DEB (TANK) 3.2 03:47:43 10° WSW 03:50:23 63° NNW 04:01:57 10° ENE
Cosmos 1980 Rocket 2.3 03:47:59 10° N 03:53:31 56° ENE 03:53:52 55° E
ATLAS 2AS CENTAUR R/B 4.4 03:46:49 10° WSW 03:53:59 37° NW 04:01:08 10° NNE
Cosmos 1627 Rocket 4.5 03:54:37 57° SE 03:55:24 62° E 04:01:39 10° NNE
Cosmos 1538 Rocket 4.2 03:53:58 38° SW 03:55:58 70° WNW 04:01:10 10° NNE
Nadezhda 4 Rocket 4.4 03:52:26 23° SSW 03:56:13 60° W 04:02:20 10° N
RESURS DK-1 4.1 03:53:53 10° SW 03:57:35 31° WNW 04:01:18 10° N
Cosmos 158 Rocket 3.8 03:58:13 85° ESE 03:58:13 85° ESE 04:03:25 10° NNE
Cosmos 2322 Rocket 4.4 03:58:28 10° NNE 04:00:36 12° NE 04:00:59 12° ENE
USA 245 4.3 04:00:12 54° SSW 04:01:23 69° WSW 04:06:32 10° NNW
Cosmos 1633 4.5 04:03:09 24° W 04:03:30 25° W 04:06:31 10° NNW
H-2A R/B 3.6 04:01:02 10° WSW 04:02:15 15° WSW 04:02:15 15° WSW
OAO 3 Copernicus 4.5 04:00:15 10° W 04:05:15 67° N 04:05:31 65° NNE
SPOT 1/Viking Rocket 4.2 04:09:03 41° SW 04:09:56 46° W 04:14:55 10° NNW
USA 267 3.7 04:07:44 10° NE 04:14:07 59° NW 04:20:31 10° WSW
ARIANE 5 R/B 3.2 04:16:06 57° NW 04:16:06 57° NW 04:19:45 10° NNW
ATLAS 3B R/B 3.1 04:11:57 10° NNW 04:18:59 54° ENE 04:20:00 50° E
Cosmos 1428 Rocket 4.4 04:21:28 73° SW 04:22:03 81° W 04:28:13 10° N
SPOT 5 3.6 04:23:22 45° NNW 04:23:22 45° NNW 04:26:23 10° NNW
SL-16 R/B 3.6 04:21:24 10° N 04:25:32 26° NE 04:25:32 26° NE
Terra 2.9 04:43:36 43° NNW 04:43:36 43° NNW 04:46:51 10° NNW
Cosmos 371 Rocket 4.5 04:40:32 10° NNW 04:43:47 39° NW 04:43:47 39° NW
Cosmos 2360 Rocket 3.8 05:11:23 10° N 05:14:46 27° NE 05:14:46 27° NE
Cosmos 2322 Rocket 3.6 05:39:39 10° NNW 05:42:47 35° NNW 05:42:47 35° NNW
ATLAS 3B R/B 4.4 06:03:27 10° NW 06:07:15 24° W 06:07:15 24° W
SL-16 R/B 4.2 06:05:10 10° NW 06:07:23 21° NW 06:07:23 21° NW
Cosmos 2219 Rocket 3.9 06:08:15 10° N 06:11:15 27° NNE 06:11:15 27° NNE
COSMOS 2455 4.2 06:27:36 36° N 06:27:36 36° N 06:31:18 10° NNE
USA 234 4.1 06:28:20 44° NW 06:28:20 44° NW 06:32:36 10° NW
Lacrosse 5 4.5 06:57:57 14° NE 06:57:57 14° NE 06:58:36 10° NE
ATLAS 5 CENTAUR R/B 4.1 06:48:56 10° N 06:53:50 26° NE 06:54:21 26° ENE
Cosmos 2333 Rocket 3.9 06:49:11 10° NNW 06:51:37 27° NNW 06:51:37 27° NNW
Resurs 1-4 Rocket 4.3 07:01:38 10° NE 07:03:26 17° ENE 07:03:26 17° ENE
Cosmos 2297 Rocket 3.6 07:18:52 34° NNE 07:18:52 34° NNE 07:21:58 10° NNE
NOSS 3-1 (C) 4.3 07:12:04 10° NNW 07:18:38 63° NW 07:18:38 63° NW
Cosmos 2227 Rocket 3.5 07:29:32 36° NNE 07:29:32 36° NNE 07:32:46 10° NNE
Cosmos 2237 Rocket 3.5 07:22:28 10° N 07:26:22 35° NNE 07:26:22 35° NNE
USA 229 DEB 4.1 07:23:57 10° NNW 07:30:34 70° N 07:30:34 70° N
USA 229 4.1 07:24:03 10° NNW 07:30:42 70° N 07:30:42 70° N
CZ-2D R/B 3.4 07:39:00 10° NNE 07:42:21 37° NE 07:42:21 37° NE
ADEOS II 4.0 07:41:46 10° NE 07:44:45 23° ENE 07:44:45 23° ENE
SL-16 R/B 4.2 07:47:11 10° N 07:51:31 22° ENE 07:53:48 18° E
NOSS 3-1 (A) 4.1 07:43:59 10° NNW 07:51:23 75° WNW 07:51:23 75° WNW
Cosmos 2263 Rocket 4.2 07:54:29 18° E 07:54:29 18° E 07:57:41 10° ENE
Cosmos 2344 4.2 08:04:50 42° ESE 08:05:06 42° ESE 08:11:56 10° NE
Cosmos 2219 4.5 08:16:32 32° NW 08:16:32 32° NW 08:20:33 10° N
Cosmos 2251 Rocket 4.3 08:36:33 45° NNW 08:36:33 45° NNW 08:40:30 10° N
Cosmos 2082 4.3 08:36:22 50° NW 08:36:22 50° NW 08:41:07 10° N
IDEFIX/ARIANE 42P 3.4 08:31:36 10° NNE 08:36:25 42° E 08:36:25 42° E
Lacrosse 5 3.6 08:37:08 24° NW 08:37:08 24° NW 08:40:58 10° NNE
ATLAS 5 CENTAUR R/B 3.6 08:32:44 10° NW 08:35:47 30° NW 08:35:47 30° NW
Cosmos 2184 Rocket 4.2 08:44:11 57° WNW 08:44:11 57° WNW 08:49:51 10° N
SL-16 R/B 2.7 08:45:15 58° WNW 08:45:15 58° WNW 08:50:33 10° NNW
Resurs 1-4 Rocket 3.3 08:40:53 10° N 08:44:30 31° NW 08:44:30 31° NW
USA 215 4.0 08:41:04 10° ENE 08:47:05 38° SE 08:47:58 37° SE
Cosmos 1733 Rocket 4.4 08:50:26 33° NNW 08:50:26 33° NNW 08:53:05 10° N
Cosmos 1295 Rocket 4.3 08:49:06 79° SSE 08:49:30 86° E 08:55:38 10° N
Cosmos 2154 Rocket 3.8 08:50:41 78° W 08:50:49 78° W 08:57:02 10° N
Cosmos 1190 Rocket 4.4 08:51:32 54° ESE 08:51:39 54° ESE 08:56:48 10° NNE
SL-8 R/B 4.4 08:53:11 49° N 08:53:11 49° N 08:57:18 10° NE
Cosmos 1140 Rocket 3.5 08:54:55 75° E 08:54:55 75° E 08:59:59 10° NNE
Cosmos 2297 Rocket 4.4 09:00:40 11° WNW 09:01:00 12° NW 09:02:54 10° NW
MSX 4.0 09:03:02 10° NNE 09:08:44 66° ESE 09:10:10 48° SSE
Okean 2 3.8 09:05:27 10° N 09:09:08 61° NE 09:09:08 61° NE
Cosmos 2237 Rocket 4.3 09:07:25 10° NW 09:08:08 13° WNW 09:08:08 13° WNW
Cosmos 2227 Rocket 4.3 09:11:21 13° WNW 09:11:45 13° NW 09:14:12 10° NNW
ARIANE 5 R/B 3.4 09:08:51 10° NNE 09:13:47 43° E 09:15:40 31° SSE
Meteor 1-28 Rocket 4.4 09:16:25 34° NNW 09:16:25 34° NNW 09:18:38 10° NNW
ADEOS Rocket 3.3 09:16:08 41° WNW 09:16:08 41° WNW 09:20:35 10° NNW
Milstar 3 3.5 09:15:44 34° S 09:16:19 35° SSE 09:22:14 10° E
CZ-2D R/B 4.0 09:20:44 10° NNW 09:23:40 16° WNW 09:23:40 16° WNW
Cosmos 1782 Rocket 3.9 09:23:30 50° SE 09:24:14 59° E 09:28:31 10° NNE
ADEOS II 3.0 09:21:06 10° N 09:25:41 31° WNW 09:25:41 31° WNW
SL-8 Rocket 4.0 09:24:58 36° S 09:27:42 78° E 09:33:51 10° N
Cosmos 2227 4.1 09:27:46 55° SW 09:28:50 68° WNW 09:34:27 10° NNE
IRS-1D 4.1 09:24:30 10° N 09:29:05 38° WNW 09:29:10 38° WNW
Cosmos 2366 rocket 4.3 09:26:46 26° SSE 09:30:29 66° E 09:36:47 10° NNE
Delta 142 4.3 09:29:32 51° SW 09:30:29 57° S 09:35:35 10° ESE
CZ-3 R/B 4.5 09:15:05 28° SSW 09:31:33 43° SSE 09:42:40 10° E
NOSS 3-3 (A) 4.1 09:32:01 42° W 09:33:22 50° NW 09:39:23 10° NNE
ATLAS CENTAUR R/B 1.3 09:33:49 60° NNW 09:33:49 60° NNW 09:37:18 10° NNE
NOSS 3-3 (C) 4.1 09:32:09 42° W 09:33:29 50° NW 09:39:28 10° NNE
Cosmos 676 Rocket 4.0 09:32:39 47° S 09:34:16 83° ESE 09:39:37 10° NNE
IRS-1C 4.0 09:29:19 10° NNE 09:34:40 88° WNW 09:36:27 44° SSW
Iridium 4 Rocket 4.1 09:29:27 10° NNW 09:34:47 45° W 09:35:32 43° WSW
SL-16 R/B 2.6 09:30:28 10° NW 09:35:34 42° W 09:35:34 42° W
Cosmos 2263 Rocket 2.6 09:36:11 41° W 09:37:19 47° WNW 09:42:48 10° N
Iridium 45 4.4 09:38:40 85° ESE 09:38:41 85° E 09:42:12 10° N
Cosmos 407 Rocket 4.4 09:41:19 32° W 09:41:58 33° WNW 09:46:44 10° N
Cosmos 1707 3.0 09:41:47 10° NNW 09:45:07 51° WNW 09:45:07 51° WNW
Spot 1 3.9 09:47:00 27° SSE 09:49:17 87° E 09:53:24 10° NNW
CZ-4C R/B 3.4 09:43:17 10° NNW 09:51:02 73° ENE 09:59:40 10° SE
ALOS 3.9 09:47:46 10° NE 09:51:52 30° E 09:55:57 10° SSE
Delta 128 3.9 09:51:46 43° SSW 09:52:28 47° S 09:57:09 10° ESE
Cosmos 2341 Rocket 4.3 09:51:38 34° SW 09:53:54 47° W 09:59:54 10° N
Cosmos 1733 3.6 09:52:52 29° SSE 09:54:37 62° E 09:58:25 10° NNE
Cosmos 2218 Rocket 4.0 09:52:26 26° SSW 09:56:13 73° W 10:02:34 10° N
Cosmos 1766 4.1 09:54:23 19° SSE 09:56:51 47° E 10:00:36 10° NNE
SL-08 R/B 3.7 09:52:13 10° SSE 09:57:06 70° ENE 10:02:02 10° N
In-Cosmos 22 4.2 09:52:48 10° NNW 09:58:30 63° W 10:02:30 20° S
Cosmos 1300 Rocket 3.6 10:01:45 20° S 10:04:37 73° E 10:08:57 10° N
Meteor 1-15 Rocket 4.5 10:00:39 14° S 10:05:50 77° E 10:11:45 10° N
Cosmos 1844 4.4 10:07:35 11° S 10:12:47 50° ESE 10:18:07 10° NNE
Cosmos 1975 Rocket 2.9 10:10:35 10° N 10:14:58 74° W 10:19:12 10° S
Cosmos 1943 3.2 10:09:41 10° NNW 10:15:25 89° ENE 10:21:06 10° SSE
IDEFIX/ARIANE 42P 4.1 10:12:10 10° NNW 10:15:42 19° WNW 10:17:13 17° W
Cosmos 1340 2.6 10:13:38 10° NNW 10:17:20 60° W 10:20:00 17° S
Cosmos 1400 Rocket 2.9 10:16:10 29° SW 10:17:46 51° W 10:21:34 10° N
CZ-3B R/B 3.5 10:12:03 20° WSW 10:19:02 47° S 10:24:10 10° ESE
CZ-2C R/B 2.2 10:14:54 10° N 10:19:29 76° WNW 10:23:06 16° SSW
Cosmos 1626 2.0 10:17:40 10° N 10:21:22 88° ENE 10:25:02 10° S
Cosmos 1315 Rocket 3.9 10:21:29 10° SSE 10:25:24 46° E 10:29:20 10° NNE
Cosmos 1674 3.2 10:24:09 10° NNW 10:27:43 37° W 10:30:00 19° SSW
USA 215 3.7 10:23:49 10° NNE 10:30:03 49° NW 10:35:19 15° WSW
PSLV R/B 3.6 10:33:15 10° NNE 10:37:33 80° ESE 10:41:46 10° S
Cosmos 1850 Rocket 4.1 10:33:53 13° SSW 10:38:41 67° WNW 10:43:56 10° N
METEOR-M 4.3 10:35:17 10° NNE 10:40:37 74° ESE 10:45:56 10° S
ASTRO E2 2.6 10:40:22 14° W 10:43:44 74° S 10:47:43 10° E
Cosmos 468 Rocket 4.1 10:42:29 10° NNW 10:47:47 84° ENE 10:53:00 10° SSE
Iridium 51 4.4 10:45:17 10° SSW 10:48:34 41° W 10:51:51 10° NNW
Cosmos 1025 Rocket 3.1 10:44:27 10° NNW 10:48:39 53° W 10:52:53 10° S
Meteor 2-5 Rocket 4.0 10:43:09 10° N 10:49:05 79° E 10:54:52 10° S
Cosmos 1821 Rocket 4.0 10:43:04 10° SSW 10:49:10 63° W 10:55:14 10° N
Cosmos 44 3.6 10:45:46 10° NW 10:50:35 44° WSW 10:55:05 10° S
Cosmos 1844 Rocket 2.9 10:45:26 10° SW 10:50:53 57° WNW 10:56:28 10° NNE
ARIANE 5 R/B 4.1 10:48:59 10° NNW 10:52:29 19° WNW 10:56:01 10° WSW
Okean 2 Rocket 3.9 10:55:03 10° SW 10:59:07 34° W 11:03:15 10° NNW
Aureole 1 Rocket 3.7 10:55:03 10° SSW 10:59:52 87° WNW 11:06:19 10° NNE
FENGYUN 3A 4.1 10:55:59 10° N 11:01:05 44° WNW 11:06:10 10° SW
CZ-2C R/B 3.9 10:59:12 10° NNW 11:02:19 26° WNW 11:05:29 10° SW
Cosmos 1603 4.4 10:57:52 10° NW 11:02:45 32° WSW 11:07:40 10° SSW
BREEZE M DEB (TANK) 2.3 11:01:06 10° SW 11:07:19 79° NW 11:09:55 10° NE
DNEPR-1 R/B 4.3 11:02:22 10° SW 11:08:07 55° WNW 11:12:55 10° NNE
MOS 1 Rocket 3.6 11:03:58 10° S 11:08:49 58° W 11:13:59 10° NNW
Cosmos 1758 3.4 11:06:40 10° S 11:10:36 80° E 11:14:33 10° N
Cosmos 1867 3.7 11:05:45 10° SW 11:11:07 65° WNW 11:16:33 10° NNE
